Location: Lussas
(44.6119°N, 4.4726°E)
Time: 04:41:08
(UTC+00:00)

Cosmos 2228 Rocket - Pass Details

Date: 26 November 2020
Orbit: 618 x 652 km, 82.5° (Epoch: 18 January)

Event Time Altitude Azimuth Distance (km) Brightness Sun altitude
Rises 06:14:41 0° 345° (NNW) 2,927 6.2 -7.0°
Reaches altitude 10° 06:17:00 10° 340° (NNW) 2,009 5.3 -6.6°
Maximum altitude 06:21:15 47° 267° (W) 832 3.4 -5.9°
Drops below altitude 10° 06:25:27 10° 194° (SSW) 1,980 5.8 -5.2°
Sets 06:27:43 0° 188° (S) 2,878 6.7 -4.9°
